FW6759 Weather Reports


time (UTC)temp
F
wind
direction
speed
knots
gust
knots
rain 1hr
in
rain 24hr
in
rain mn
in
humidity
%
barometer
mb
20260508043006 42 184 23.5 29.5 0.00 0.00 0.00 67 1017.4
20260508042006 45 177 21.7 26.9 0.00 0.00 0.00 59 1017.1
20260508041006 47 169 25.2 34.8 0.00 0.00 0.00 46 1016.8
20260508040006 48 168 22.6 27.8 0.00 0.00 0.00 41 1016.4
20260508035010 48 171 20.9 26.1 0.00 0.00 0.00 39 1016.2
20260508034006 49 182 16.5 20.0 0.00 0.00 0.00 38 1016.2
20260508032006 49 171 17.4 20.9 0.00 0.00 0.00 36 1015.6
20260508031006 49 165 16.5 19.1 0.00 0.00 0.00 35 1015.7
20260508030006 49 170 18.2 23.5 0.00 0.00 0.00 36 1015.9
20260508025006 49 168 20.0 23.5 0.00 0.00 0.00 33 1015.5
20260508024006 50 162 20.0 21.7 0.00 0.00 0.00 32 1015.5
20260508023006 49 173 20.9 23.5 0.00 0.00 0.00 32 1015.5
20260508022006 49 171 20.0 23.5 0.00 0.00 0.00 32 1015.5
20260508021006 49 177 21.7 26.1 0.00 0.00 0.00 33 1015.5
20260508020008 49 168 19.1 23.5 0.00 0.00 0.00 32 1015.6
20260508014006 49 169 20.9 23.5 0.00 0.00 0.00 32 1015.7
20260508013006 49 163 21.7 27.8 0.00 0.00 0.00 32 1015.8
20260508012006 49 166 19.1 23.5 0.00 0.00 0.00 35 1016.0
20260508011006 49 173 22.6 25.2 0.00 0.00 0.00 34 1016.2
20260508010006 49 169 22.6 26.1 0.00 0.00 0.00 34 1015.9
20260508005006 49 175 21.7 23.5 0.00 0.00 0.00 34 1016.0
20260508004006 49 174 23.5 25.2 0.00 0.00 0.00 35 1016.1
20260508002006 47 176 15.6 18.2 0.00 0.00 0.00 42 1016.0
20260508001007 47 165 14.8 15.6 0.00 0.00 0.00 52 1016.4
20260508000006 47 163 16.5 19.1 0.00 0.00 0.00 54 1016.3
20260507235006 49 181 17.4 18.2 0.00 0.00 0.00 44 1016.3
20260507234006 48 185 17.4 19.1 0.00 0.00 0.00 46 1016.3
20260507232006 48 187 17.4 20.0 0.00 0.00 0.00 54 1016.7
20260507231006 49 176 20.9 23.5 0.00 0.00 0.00 48 1016.9
20260507230006 48 175 21.7 23.5 0.00 0.00 0.00 51 1016.9
20260507224006 48 168 18.2 20.9 0.00 0.00 0.00 56 1017.2
20260507222005 47 163 15.6 17.4 0.00 0.00 0.00 67 1017.0
20260507221006 46 159 13.9 14.8 0.00 0.00 0.00 67 1017.1
20260507220006 46 157 16.5 20.9 0.00 0.00 0.00 65 1017.1
20260507215006 46 161 15.6 20.0 0.00 0.00 0.00 66 1017.1
20260507214006 46 162 14.8 17.4 0.00 0.00 0.00 63 1017.0
20260507213006 46 165 15.6 17.4 0.00 0.00 0.00 63 1017.1
20260507212006 46 163 14.8 15.6 0.00 0.00 0.00 61 1017.3
20260507210007 46 185 14.8 17.4 0.00 0.00 0.00 62 1017.4
20260507205006 47 193 13.9 15.6 0.00 0.00 0.00 59 1017.6
20260507204006 47 194 12.2 13.9 0.00 0.00 0.00 59 1017.6
20260507203006 47 188 12.2 13.9 0.00 0.00 0.00 66 1017.6
20260507202006 48 185 14.8 18.2 0.00 0.00 0.00 59 1017.4
20260507201006 48 187 17.4 18.2 0.00 0.00 0.00 60 1017.7
20260507194006 47 174 14.8 17.4 0.00 0.00 0.00 66 1017.6
20260507193006 47 165 14.8 15.6 0.00 0.00 0.00 65 1017.6
20260507192006 47 171 13.0 14.8 0.00 0.00 0.00 66 1017.4
20260507191006 47 175 12.2 13.0 0.00 0.00 0.00 68 1017.4
20260507185006 47 165 12.2 13.0 0.00 0.00 0.00 71 1017.4
20260507184006 47 175 11.3 12.2 0.00 0.00 0.00 73 1017.2
20260507183006 47 169 10.4 11.3 0.00 0.00 0.00 72 1017.1
20260507182007 48 165 10.4 11.3 0.00 0.00 0.00 70 1017.1
20260507181006 48 147 10.4 11.3 0.00 0.00 0.00 68 1016.7
20260507175006 49 161 9.6 13.0 0.00 0.00 0.00 70 1016.9
20260507174006 48 168 10.4 11.3 0.00 0.00 0.00 70 1016.7
20260507173006 48 165 10.4 13.0 0.00 0.00 0.00 71 1016.8
20260507172006 49 145 11.3 13.0 0.00 0.00 0.00 69 1016.9
20260507171006 49 144 10.4 11.3 0.00 0.00 0.00 69 1017.2
20260507165006 50 147 11.3 12.2 0.00 0.00 0.00 69 1016.9
20260507164006 50 149 8.7 11.3 0.00 0.00 0.00 67 1017.0
20260507163007 50 154 7.0 7.8 0.00 0.00 0.00 65 1017.0
20260507161006 51 148 6.1 7.0 0.00 0.00 0.00 65 1017.1
20260507160006 51 148 6.1 7.8 0.00 0.00 0.00 65 1017.0
20260507155006 51 149 7.8 7.8 0.00 0.00 0.00 66 1017.1
20260507154008 52 159 7.0 9.6 0.00 0.00 0.00 65 1017.4
20260507153006 52 158 8.7 9.6 0.00 0.00 0.00 64 1017.1
20260507152006 52 148 9.6 11.3 0.00 0.00 0.00 66 1017.1
20260507151006 52 148 8.7 11.3 0.00 0.00 0.00 66 1017.1
20260507150006 53 154 9.6 9.6 0.00 0.00 0.00 64 1017.3
20260507145006 53 153 8.7 9.6 0.00 0.00 0.00 64 1017.2
20260507144007 53 155 8.7 12.2 0.00 0.00 0.00 61 1017.3
20260507143006 53 154 8.7 9.6 0.00 0.00 0.00 60 1017.3
20260507141007 55 154 9.6 13.0 0.00 0.00 0.00 56 1017.0
20260507140006 54 143 11.3 14.8 0.00 0.00 0.00 60 1017.1
20260507135005 54 155 9.6 11.3 0.00 0.00 0.00 59 1017.3
20260507134005 56 150 8.7 12.2 0.00 0.00 0.00 53 1017.4
20260507133005 54 153 11.3 15.6 0.00 0.00 0.00 57 1017.3
20260507132006 55 154 13.9 18.2 0.00 0.00 0.00 56 1017.3
20260507131006 56 160 17.4 20.0 0.00 0.00 0.00 55 1017.3
20260507125006 56 146 12.2 18.2 0.00 0.00 0.00 53 1017.3
20260507124006 58 141 9.6 13.0 0.00 0.00 0.00 50 1017.3
20260507123006 55 157 13.0 19.1 0.00 0.00 0.00 51 1017.3
20260507120006 54 173 10.4 13.0 0.00 0.00 0.00 52 1017.6
20260507114006 55 162 16.5 18.2 0.00 0.00 0.00 50 1017.6
20260507112009 55 149 16.5 20.9 0.00 0.00 0.00 48 1017.6
20260507111005 54 155 13.0 15.6 0.00 0.00 0.00 52 1017.6
20260507110005 53 167 12.2 14.8 0.00 0.00 0.00 52 1017.8
20260507105006 53 165 14.8 15.6 0.00 0.00 0.00 50 1017.8
20260507104006 54 152 12.2 14.8 0.00 0.00 0.00 51 1017.9
20260507103006 54 157 9.6 13.0 0.00 0.00 0.00 55 1018.1
20260507102007 52 147 10.4 13.0 0.00 0.00 0.00 56 1018.1
20260507101006 52 156 10.4 12.2 0.00 0.00 0.00 57 1018.1
20260507100006 52 167 9.6 12.2 0.00 0.00 0.00 57 1017.9
20260507094005 52 159 12.2 13.9 0.00 0.00 0.00 59 1018.0
20260507093006 53 148 11.3 13.0 0.00 0.00 0.00 57 1018.0
20260507092006 53 154 10.4 11.3 0.00 0.00 0.00 58 1017.9
20260507091006 55 149 9.6 11.3 0.00 0.00 0.00 57 1017.9
20260507090006 54 149 10.4 12.2 0.00 0.00 0.00 54 1017.6
20260507085006 52 158 10.4 12.2 0.00 0.00 0.00 59 1017.9
20260507082006 51 166 9.6 11.3 0.00 0.00 0.00 63 1018.0
20260507081006 51 165 10.4 11.3 0.00 0.00 0.00 62 1017.9
20260507075005 53 172 9.6 11.3 0.00 0.00 0.00 62 1017.5
20260507073006 53 168 9.6 11.3 0.00 0.00 0.00 61 1017.4
20260507072006 53 158 10.4 13.0 0.00 0.00 0.00 61 1017.6
20260507071006 53 169 10.4 12.2 0.00 0.00 0.00 64 1017.6
20260507065006 54 183 7.0 7.8 0.00 0.00 0.00 65 1017.6
20260507064006 53 162 7.8 9.6 0.00 0.00 0.00 65 1017.6
20260507063006 52 163 9.6 11.3 0.00 0.00 0.00 66 1017.7
20260507062006 53 156 7.0 9.6 0.00 0.00 0.00 64 1017.6
20260507061006 52 162 4.3 6.1 0.00 0.00 0.00 64 1017.7
20260507060006 51 177 5.2 7.0 0.00 0.00 0.00 67 1017.8
20260507054005 50 179 6.1 7.0 0.00 0.00 0.00 68 1017.7
20260507052005 51 174 7.0 7.8 0.00 0.00 0.00 62 1017.5
20260507051006 47 199 6.1 7.8 0.00 0.00 0.00 64 1015.9
20260507045005 47 199 6.1 7.8 0.00 0.00 0.00 64 1015.9